{"data":{"norad_id":58044,"epoch":"2026-09-20T21:49:33.823200Z","epoch_age_seconds":102238,"freshness":"FRESH","line1":"1 58044U 23156S   26263.90941925  .00000182  00000+0  16529-4 0  9993","line2":"2 58044  53.1633 337.6928 0001425  91.4652 268.6514 15.34390694164974","mean_motion":15.34390694,"eccentricity":0.0001425,"inclination_deg":53.1633,"raan_deg":337.6928,"arg_perigee_deg":91.4652,"mean_anomaly_deg":268.6514,"bstar":1.6529e-5,"rev_number":16497,"period_min":93.848327263121,"perigee_km":461.75607606434,"apogee_km":463.70572341576,"semimajor_km":6840.86789974,"source":"CELESTRAK","updated_at":"2026-09-21T09:00:33.775701Z"}}